Time,TemperatureF,DewpointF,PressureIn,WindDirection,WindDirectionDegrees,WindSpeedMPH,WindSpeedGustMPH,Humidity,HourlyPrecipIn,Conditions,Clouds,dailyrainin,SolarRadiationWatts/m^2,SoftwareType,DateUTC
2013-01-18 00:00:00,38.0,27.0,30.20,North,2,4.0,-999.0,64,0.00,,,-99.99,-2.900000,,2013-01-18 08:00:00,
2013-01-18 00:22:00,38.0,27.0,30.20,North,2,4.0,-999.0,64,0.00,,,-99.99,-2.900000,,2013-01-18 08:22:00,
2013-01-18 00:32:00,38.0,27.0,30.20,North,2,4.0,-999.0,64,0.00,,,-99.99,-2.900000,,2013-01-18 08:32:00,
2013-01-18 00:42:00,38.0,27.0,30.20,North,2,4.0,-999.0,64,0.00,,,-99.99,-2.900000,,2013-01-18 08:42:00,
2013-01-18 00:53:00,38.0,27.0,30.20,North,2,4.0,-999.0,64,0.00,,,-99.99,-2.900000,,2013-01-18 08:53:00,
2013-01-18 01:00:00,40.0,25.0,30.19,North,355,4.0,-999.0,55,0.00,,,-99.99,-2.300000,,2013-01-18 09:00:00,
2013-01-18 01:22:00,40.0,25.0,30.19,North,355,4.0,-999.0,55,0.00,,,-99.99,-2.300000,,2013-01-18 09:22:00,
2013-01-18 01:33:00,40.0,25.0,30.19,North,355,4.0,-999.0,55,0.00,,,-99.99,-2.300000,,2013-01-18 09:33:00,
2013-01-18 01:42:00,40.0,25.0,30.19,North,355,4.0,-999.0,55,0.00,,,-99.99,-2.300000,,2013-01-18 09:42:00,
2013-01-18 01:52:00,40.0,25.0,30.19,North,355,4.0,-999.0,55,0.00,,,-99.99,-2.300000,,2013-01-18 09:52:00,
2013-01-18 02:00:00,40.0,24.0,30.20,North,7,4.0,-999.0,52,0.00,,,-99.99,-2.900000,,2013-01-18 10:00:00,
2013-01-18 02:22:00,40.0,24.0,30.20,North,7,4.0,-999.0,52,0.00,,,-99.99,-2.900000,,2013-01-18 10:22:00,
2013-01-18 02:33:00,40.0,24.0,30.20,North,7,4.0,-999.0,52,0.00,,,-99.99,-2.900000,,2013-01-18 10:33:00,
2013-01-18 02:43:00,40.0,24.0,30.20,North,7,4.0,-999.0,52,0.00,,,-99.99,-2.900000,,2013-01-18 10:43:00,
2013-01-18 02:52:00,40.0,24.0,30.20,North,7,4.0,-999.0,52,0.00,,,-99.99,-2.900000,,2013-01-18 10:52:00,
2013-01-18 03:00:00,40.0,23.0,30.19,North,2,3.0,-999.0,51,0.00,,,-99.99,-3.000000,,2013-01-18 11:00:00,
2013-01-18 03:23:00,40.0,23.0,30.19,North,2,3.0,-999.0,51,0.00,,,-99.99,-3.000000,,2013-01-18 11:23:00,
2013-01-18 03:33:00,40.0,23.0,30.19,North,2,3.0,-999.0,51,0.00,,,-99.99,-3.000000,,2013-01-18 11:33:00,
2013-01-18 03:42:00,40.0,23.0,30.19,North,2,3.0,-999.0,51,0.00,,,-99.99,-3.000000,,2013-01-18 11:42:00,
2013-01-18 03:53:00,40.0,23.0,30.19,North,2,3.0,-999.0,51,0.00,,,-99.99,-3.000000,,2013-01-18 11:53:00,
2013-01-18 04:00:00,39.0,23.0,30.19,North,353,4.0,-999.0,51,0.00,,,-99.99,-2.900000,,2013-01-18 12:00:00,
2013-01-18 04:23:00,39.0,23.0,30.19,North,353,4.0,-999.0,51,0.00,,,-99.99,-2.900000,,2013-01-18 12:23:00,
2013-01-18 04:33:00,39.0,23.0,30.19,North,353,4.0,-999.0,51,0.00,,,-99.99,-2.900000,,2013-01-18 12:33:00,
2013-01-18 04:43:00,39.0,23.0,30.19,North,353,4.0,-999.0,51,0.00,,,-99.99,-2.900000,,2013-01-18 12:43:00,
2013-01-18 04:53:00,39.0,23.0,30.19,North,353,4.0,-999.0,51,0.00,,,-99.99,-2.900000,,2013-01-18 12:53:00,
2013-01-18 05:00:00,38.0,22.0,30.18,North,352,4.0,-999.0,51,0.00,,,-99.99,-2.600000,,2013-01-18 13:00:00,
2013-01-18 05:23:00,38.0,22.0,30.18,North,352,4.0,-999.0,51,0.00,,,-99.99,-2.600000,,2013-01-18 13:23:00,
2013-01-18 05:33:00,38.0,22.0,30.18,North,352,4.0,-999.0,51,0.00,,,-99.99,-2.600000,,2013-01-18 13:33:00,
2013-01-18 05:43:00,38.0,22.0,30.18,North,352,4.0,-999.0,51,0.00,,,-99.99,-2.600000,,2013-01-18 13:43:00,
2013-01-18 05:53:00,38.0,22.0,30.18,North,352,4.0,-999.0,51,0.00,,,-99.99,-2.600000,,2013-01-18 13:53:00,
2013-01-18 06:00:00,38.0,22.0,30.18,North,351,6.0,-999.0,53,0.00,,,-99.99,-2.500000,,2013-01-18 14:00:00,
2013-01-18 06:23:00,38.0,22.0,30.18,North,351,6.0,-999.0,53,0.00,,,-99.99,-2.500000,,2013-01-18 14:23:00,
2013-01-18 06:34:00,38.0,22.0,30.18,North,351,6.0,-999.0,53,0.00,,,-99.99,-2.500000,,2013-01-18 14:34:00,
2013-01-18 06:43:00,38.0,22.0,30.18,North,351,6.0,-999.0,53,0.00,,,-99.99,-2.500000,,2013-01-18 14:43:00,
2013-01-18 06:53:00,38.0,22.0,30.18,North,351,6.0,-999.0,53,0.00,,,-99.99,-2.500000,,2013-01-18 14:53:00,
2013-01-18 07:00:00,38.0,21.0,30.18,NNE,12,2.0,-999.0,49,0.00,,,-99.99,-2.700000,,2013-01-18 15:00:00,
2013-01-18 07:23:00,38.0,21.0,30.18,NNE,12,2.0,-999.0,49,0.00,,,-99.99,-2.700000,,2013-01-18 15:23:00,
2013-01-18 07:34:00,38.0,21.0,30.18,NNE,12,2.0,-999.0,49,0.00,,,-99.99,-2.700000,,2013-01-18 15:34:00,
2013-01-18 07:43:00,38.0,21.0,30.18,NNE,12,2.0,-999.0,49,0.00,,,-99.99,-2.700000,,2013-01-18 15:43:00,
2013-01-18 07:53:00,38.0,21.0,30.18,NNE,12,2.0,-999.0,49,0.00,,,-99.99,-2.700000,,2013-01-18 15:53:00,
2013-01-18 08:00:00,39.0,20.0,30.20,North,3,6.0,-999.0,45,0.00,,,-99.99,6.000000,,2013-01-18 16:00:00,
2013-01-18 08:23:00,39.0,20.0,30.20,North,3,6.0,-999.0,45,0.00,,,-99.99,6.000000,,2013-01-18 16:23:00,
2013-01-18 08:33:00,39.0,20.0,30.20,North,3,6.0,-999.0,45,0.00,,,-99.99,6.000000,,2013-01-18 16:33:00,
2013-01-18 08:43:00,39.0,20.0,30.20,North,3,6.0,-999.0,45,0.00,,,-99.99,6.000000,,2013-01-18 16:43:00,
2013-01-18 08:53:00,39.0,20.0,30.20,North,3,6.0,-999.0,45,0.00,,,-99.99,6.000000,,2013-01-18 16:53:00,
2013-01-18 09:00:00,42.0,20.0,30.22,North,7,4.0,-999.0,41,0.00,,,-99.99,29.000000,,2013-01-18 17:00:00,
2013-01-18 09:23:00,42.0,20.0,30.22,North,7,4.0,-999.0,41,0.00,,,-99.99,29.000000,,2013-01-18 17:23:00,
2013-01-18 09:34:00,42.0,20.0,30.22,North,7,4.0,-999.0,41,0.00,,,-99.99,29.000000,,2013-01-18 17:34:00,
2013-01-18 09:43:00,42.0,20.0,30.22,North,7,4.0,-999.0,41,0.00,,,-99.99,29.000000,,2013-01-18 17:43:00,
2013-01-18 09:53:00,42.0,20.0,30.22,North,7,4.0,-999.0,41,0.00,,,-99.99,29.000000,,2013-01-18 17:53:00,
2013-01-18 10:24:00,48.0,22.0,30.24,North,10,5.0,-999.0,35,0.00,,,-99.99,328.299988,,2013-01-18 18:24:00,
2013-01-18 10:33:00,48.0,22.0,30.24,North,10,5.0,-999.0,35,0.00,,,-99.99,328.299988,,2013-01-18 18:33:00,
2013-01-18 10:43:00,48.0,22.0,30.24,North,10,5.0,-999.0,35,0.00,,,-99.99,328.299988,,2013-01-18 18:43:00,
2013-01-18 10:53:00,48.0,22.0,30.24,North,10,5.0,-999.0,35,0.00,,,-99.99,328.299988,,2013-01-18 18:53:00,
2013-01-18 11:00:00,55.0,24.0,30.23,NE,37,3.0,-999.0,30,0.00,,,-99.99,464.200012,,2013-01-18 19:00:00,
2013-01-18 11:23:00,55.0,24.0,30.23,NE,37,3.0,-999.0,30,0.00,,,-99.99,464.200012,,2013-01-18 19:23:00,
2013-01-18 11:33:00,55.0,24.0,30.23,NE,37,3.0,-999.0,30,0.00,,,-99.99,464.200012,,2013-01-18 19:33:00,
2013-01-18 11:43:00,55.0,24.0,30.23,NE,37,3.0,-999.0,30,0.00,,,-99.99,464.200012,,2013-01-18 19:43:00,
2013-01-18 11:53:00,55.0,24.0,30.23,NE,37,3.0,-999.0,30,0.00,,,-99.99,464.200012,,2013-01-18 19:53:00,
2013-01-18 12:00:00,62.0,24.0,30.20,NNE,30,1.0,-999.0,22,0.00,,,-99.99,534.099976,,2013-01-18 20:00:00,
2013-01-18 12:23:00,62.0,24.0,30.20,NNE,30,1.0,-999.0,22,0.00,,,-99.99,534.099976,,2013-01-18 20:23:00,
2013-01-18 12:33:00,62.0,24.0,30.20,NNE,30,1.0,-999.0,22,0.00,,,-99.99,534.099976,,2013-01-18 20:33:00,
2013-01-18 12:43:00,62.0,24.0,30.20,NNE,30,1.0,-999.0,22,0.00,,,-99.99,534.099976,,2013-01-18 20:43:00,
2013-01-18 12:53:00,62.0,24.0,30.20,NNE,30,1.0,-999.0,22,0.00,,,-99.99,534.099976,,2013-01-18 20:53:00,
2013-01-18 14:00:00,65.0,25.0,30.16,NW,320,1.0,-999.0,21,0.00,,,-99.99,326.100006,,2013-01-18 22:00:00,
2013-01-18 14:23:00,65.0,25.0,30.16,NW,320,1.0,-999.0,21,0.00,,,-99.99,326.100006,,2013-01-18 22:23:00,
2013-01-18 14:33:00,65.0,25.0,30.16,NW,320,1.0,-999.0,21,0.00,,,-99.99,326.100006,,2013-01-18 22:33:00,
2013-01-18 14:43:00,65.0,25.0,30.16,NW,320,1.0,-999.0,21,0.00,,,-99.99,326.100006,,2013-01-18 22:43:00,
2013-01-18 14:53:00,65.0,25.0,30.16,NW,320,1.0,-999.0,21,0.00,,,-99.99,326.100006,,2013-01-18 22:53:00,
2013-01-18 15:00:00,63.0,29.0,30.15,SW,217,3.0,-999.0,28,0.00,,,-99.99,198.500000,,2013-01-18 23:00:00,
2013-01-18 15:23:00,63.0,29.0,30.15,SW,217,3.0,-999.0,28,0.00,,,-99.99,198.500000,,2013-01-18 23:23:00,
2013-01-18 15:33:00,63.0,29.0,30.15,SW,217,3.0,-999.0,28,0.00,,,-99.99,198.500000,,2013-01-18 23:33:00,
2013-01-18 15:43:00,63.0,29.0,30.15,SW,217,3.0,-999.0,28,0.00,,,-99.99,198.500000,,2013-01-18 23:43:00,
2013-01-18 15:53:00,63.0,29.0,30.15,SW,217,3.0,-999.0,28,0.00,,,-99.99,198.500000,,2013-01-18 23:53:00,
2013-01-18 16:00:00,60.0,30.0,30.15,South,183,1.0,-999.0,31,0.00,,,-99.99,38.200001,,2013-01-19 00:00:00,
2013-01-18 16:23:00,60.0,30.0,30.15,South,183,1.0,-999.0,31,0.00,,,-99.99,38.200001,,2013-01-19 00:23:00,
2013-01-18 16:33:00,60.0,30.0,30.15,South,183,1.0,-999.0,31,0.00,,,-99.99,38.200001,,2013-01-19 00:33:00,
2013-01-18 16:43:00,60.0,30.0,30.15,South,183,1.0,-999.0,31,0.00,,,-99.99,38.200001,,2013-01-19 00:43:00,
2013-01-18 16:53:00,60.0,30.0,30.15,South,183,1.0,-999.0,31,0.00,,,-99.99,38.200001,,2013-01-19 00:53:00,
2013-01-18 17:00:00,51.0,35.0,30.14,NNW,343,0.0,-999.0,54,0.00,,,-99.99,18.200001,,2013-01-19 01:00:00,
2013-01-18 17:23:00,51.0,35.0,30.14,NNW,343,0.0,-999.0,54,0.00,,,-99.99,18.200001,,2013-01-19 01:23:00,
2013-01-18 17:33:00,51.0,35.0,30.14,NNW,343,0.0,-999.0,54,0.00,,,-99.99,18.200001,,2013-01-19 01:33:00,
2013-01-18 18:00:00,44.0,34.0,30.15,North,0,0.0,-999.0,66,0.00,,,-99.99,-1.600000,,2013-01-19 02:00:00,
2013-01-18 18:23:00,44.0,34.0,30.15,North,0,0.0,-999.0,66,0.00,,,-99.99,-1.600000,,2013-01-19 02:23:00,
2013-01-18 18:33:00,44.0,34.0,30.15,North,0,0.0,-999.0,66,0.00,,,-99.99,-1.600000,,2013-01-19 02:33:00,
2013-01-18 19:23:00,40.0,33.0,30.15,NNE,15,0.0,-999.0,75,0.00,,,-99.99,-1.300000,,2013-01-19 03:23:00,
2013-01-18 19:33:00,40.0,33.0,30.15,NNE,15,0.0,-999.0,75,0.00,,,-99.99,-1.300000,,2013-01-19 03:33:00,
2013-01-18 20:22:00,38.0,33.0,30.15,NNE,12,0.0,-999.0,79,0.00,,,-99.99,-1.300000,,2013-01-19 04:22:00,
2013-01-18 20:33:00,38.0,33.0,30.15,NNE,12,0.0,-999.0,79,0.00,,,-99.99,-1.300000,,2013-01-19 04:33:00,
2013-01-18 21:23:00,38.0,32.0,30.15,NNE,14,1.0,-999.0,81,0.00,,,-99.99,-1.100000,,2013-01-19 05:23:00,
2013-01-18 21:33:00,38.0,32.0,30.15,NNE,14,1.0,-999.0,81,0.00,,,-99.99,-1.100000,,2013-01-19 05:33:00,
2013-01-18 22:00:00,43.0,31.0,30.16,North,11,5.0,-999.0,61,0.00,,,-99.99,-0.500000,,2013-01-19 06:00:00,
2013-01-18 22:23:00,43.0,31.0,30.16,North,11,5.0,-999.0,61,0.00,,,-99.99,-0.500000,,2013-01-19 06:23:00,
2013-01-18 22:33:00,43.0,31.0,30.16,North,11,5.0,-999.0,61,0.00,,,-99.99,-0.500000,,2013-01-19 06:33:00,
2013-01-18 22:43:00,43.0,31.0,30.16,North,11,5.0,-999.0,61,0.00,,,-99.99,-0.500000,,2013-01-19 06:43:00,
2013-01-18 22:53:00,43.0,31.0,30.16,North,11,5.0,-999.0,61,0.00,,,-99.99,-0.500000,,2013-01-19 06:53:00,
2013-01-18 23:00:00,43.0,29.0,30.16,NNE,13,5.0,-999.0,57,0.00,,,-99.99,-2.700000,,2013-01-19 07:00:00,
2013-01-18 23:23:00,43.0,29.0,30.16,NNE,13,5.0,-999.0,57,0.00,,,-99.99,-2.700000,,2013-01-19 07:23:00,
2013-01-18 23:33:00,43.0,29.0,30.16,NNE,13,5.0,-999.0,57,0.00,,,-99.99,-2.700000,,2013-01-19 07:33:00,
2013-01-18 23:43:00,43.0,29.0,30.16,NNE,13,5.0,-999.0,57,0.00,,,-99.99,-2.700000,,2013-01-19 07:43:00,
2013-01-18 23:52:00,43.0,29.0,30.16,NNE,13,5.0,-999.0,57,0.00,,,-99.99,-2.700000,,2013-01-19 07:52:00,